Weather History for KJDD - February, 2013

Change the Weather History Date:

Tuesday, February 26, 2013

  Actual Average (KTYR) Record (KTYR)
Temperature  
Mean Temperature 46 °F 53 °F  
Max Temperature 57 °F 63 °F 87 °F (1986)
Min Temperature 35 °F 43 °F 18 °F (1960)
Degree Days  
Heating Degree Days 19 12  
Month to date heating degree days 389  
Since 1 July heating degree days 1867  
Cooling Degree Days 0 0  
Month to date cooling degree days 0  
Year to date cooling degree days 4  
Moisture  
Dew Point 33 °F    
Average Humidity 62    
Maximum Humidity 93    
Minimum Humidity 38    
Precipitation  
Precipitation 0.00 in 0.14 in 2.56 in (1944)
Month to date precipitation 3.50  
Year to date precipitation 6.56  
Snow  
Snow 0.00 in - - ()
Month to date snowfall  
Since 1 July snowfall  
Snow Depth -    
Sea Level Pressure  
Sea Level Pressure 29.80 in    
Wind  
Wind Speed 13 mph (WNW)    
Max Wind Speed 22 mph    
Max Gust Speed 31 mph    
Visibility 10 miles    
Events      
T = Trace of Precipitation, MM = Missing Value Source: NWS Daily Summary

Daily Weather History Graph

Daily Weather History Graph

Search for Another Location

Airport or City:

Trip Planner

Search our weather history database for the weather conditions in past years. The results will help you decide how hot, cold, wet, or windy it might be!

Date:

Astronomy

Feb. 26, 2013 Rise Set
Actual Time 6:52 AM CST 6:17 PM CST
Civil Twilight 6:28 AM CST 6:41 PM CST
Nautical Twilight 5:59 AM CST 7:10 PM CST
Astronomical Twilight 5:31 AM CST 7:39 PM CST
Moon 7:27 PM CST (2/26) 7:01 AM CST (2/26)
Length of Visible Light 12h 13m
Length of Day
11h 24m
Full, 99% of the Moon is Illuminated
Feb 26
Full
Mar 4
Last Quarter
Mar 11
New
Mar 19
First Quarter
Mar 27
Full

Hourly Weather History & Observations

Time (CST) Temp. Windchill Dew Point Humidity Pressure Visibility Wind Dir Wind Speed Gust Speed Precip Events Conditions
12:15 AM 42.8 °F 34.8 °F 35.6 °F 76% 29.61 in 9.0 mi West 17.3 mph 25.3 mph N/A   Overcast
12:35 AM 42.8 °F 35.4 °F 35.6 °F 76% 29.62 in 10.0 mi West 15.0 mph 25.3 mph N/A   Overcast
12:55 AM 42.8 °F 35.8 °F 35.6 °F 76% 29.63 in 10.0 mi West 13.8 mph 24.2 mph N/A   Overcast
1:15 AM 42.8 °F 35.4 °F 35.6 °F 76% 29.63 in 10.0 mi West 15.0 mph 27.6 mph N/A   Overcast
1:35 AM 42.8 °F 34.5 °F 33.8 °F 70% 29.64 in 10.0 mi West 18.4 mph 28.8 mph N/A   Overcast
1:55 AM 42.8 °F 36.2 °F 33.8 °F 70% 29.64 in 10.0 mi West 12.7 mph 25.3 mph N/A   Overcast
2:15 AM 42.8 °F 35.4 °F 33.8 °F 70% 29.64 in 10.0 mi West 15.0 mph 26.5 mph N/A   Overcast
2:35 AM 42.8 °F 35.4 °F 33.8 °F 70% 29.65 in 10.0 mi West 15.0 mph 28.8 mph N/A   Overcast
2:55 AM 42.8 °F 35.1 °F 33.8 °F 70% 29.66 in 10.0 mi West 16.1 mph 21.9 mph N/A   Overcast
3:15 AM 42.8 °F 33.8 °F 32.0 °F 66% 29.66 in 10.0 mi West 21.9 mph 31.1 mph N/A   Overcast
3:35 AM 42.8 °F 34.5 °F 32.0 °F 66% 29.66 in 10.0 mi WNW 18.4 mph 28.8 mph N/A   Overcast
3:55 AM 42.8 °F 35.1 °F 32.0 °F 66% 29.65 in 10.0 mi West 16.1 mph 28.8 mph N/A   Overcast
4:15 AM 42.8 °F 35.8 °F 32.0 °F 66% 29.66 in 10.0 mi West 13.8 mph 24.2 mph N/A   Mostly Cloudy
4:35 AM 42.8 °F 34.3 °F 32.0 °F 66% 29.67 in 10.0 mi WNW 19.6 mph 26.5 mph N/A   Overcast
4:55 AM 42.8 °F 35.1 °F 32.0 °F 66% 29.67 in 10.0 mi West 16.1 mph 24.2 mph N/A   Overcast
5:15 AM 42.8 °F 35.1 °F 32.0 °F 66% 29.69 in 10.0 mi West 16.1 mph 25.3 mph N/A   Overcast
5:35 AM 42.8 °F 36.2 °F 32.0 °F 66% 29.69 in 10.0 mi West 12.7 mph 24.2 mph N/A   Overcast
5:55 AM 42.8 °F 35.8 °F 32.0 °F 66% 29.70 in 10.0 mi West 13.8 mph 27.6 mph N/A   Overcast
6:15 AM 42.8 °F 35.8 °F 32.0 °F 66% 29.71 in 10.0 mi West 13.8 mph 24.2 mph N/A   Overcast
6:35 AM 42.8 °F 35.4 °F 32.0 °F 66% 29.72 in 10.0 mi West 15.0 mph 23.0 mph N/A   Overcast
6:55 AM 42.8 °F 35.8 °F 32.0 °F 66% 29.74 in 10.0 mi West 13.8 mph 21.9 mph N/A   Overcast
7:15 AM 42.8 °F 35.8 °F 32.0 °F 66% 29.75 in 9.0 mi West 13.8 mph 23.0 mph N/A   Mostly Cloudy
7:35 AM 42.8 °F 35.8 °F 32.0 °F 66% 29.76 in 9.0 mi WNW 13.8 mph 19.6 mph N/A   Overcast
7:55 AM 42.8 °F 35.4 °F 32.0 °F 66% 29.77 in 9.0 mi WNW 15.0 mph 20.7 mph N/A   Overcast
8:15 AM 42.8 °F 35.8 °F 32.0 °F 66% 29.78 in 9.0 mi West 13.8 mph 21.9 mph N/A   Overcast
8:35 AM 42.8 °F 35.8 °F 32.0 °F 66% 29.79 in 10.0 mi WNW 13.8 mph 25.3 mph N/A   Overcast
8:55 AM 44.6 °F 38.1 °F 32.0 °F 61% 29.79 in 10.0 mi WNW 13.8 mph 23.0 mph N/A   Scattered Clouds
9:15 AM 46.4 °F 40.4 °F 32.0 °F 57% 29.80 in 9.0 mi WNW 13.8 mph 19.6 mph N/A   Partly Cloudy
9:35 AM 46.4 °F 39.5 °F 32.0 °F 57% 29.81 in 9.0 mi WNW 17.3 mph 26.5 mph N/A   Mostly Cloudy
9:55 AM 46.4 °F 40.4 °F 33.8 °F 62% 29.82 in 9.0 mi West 13.8 mph 25.3 mph N/A   Mostly Cloudy
10:15 AM 46.4 °F 40.4 °F 33.8 °F 62% 29.83 in 10.0 mi WNW 13.8 mph 25.3 mph N/A   Mostly Cloudy
10:35 AM 46.4 °F 39.5 °F 33.8 °F 62% 29.84 in 9.0 mi West 17.3 mph 20.7 mph N/A   Mostly Cloudy
10:55 AM 46.4 °F 40.1 °F 33.8 °F 62% 29.84 in 10.0 mi West 15.0 mph 19.6 mph N/A   Overcast
11:15 AM 46.4 °F 39.5 °F 33.8 °F 62% 29.85 in 10.0 mi West 17.3 mph 23.0 mph N/A   Overcast
11:35 AM 46.4 °F 40.7 °F 33.8 °F 62% 29.86 in 10.0 mi WNW 12.7 mph 23.0 mph N/A   Mostly Cloudy
11:55 AM 48.2 °F - 33.8 °F 58% 29.87 in 10.0 mi WNW 16.1 mph 24.2 mph N/A   Mostly Cloudy
12:15 PM 50.0 °F - 33.8 °F 54% 29.86 in 9.0 mi WNW 13.8 mph - N/A   Mostly Cloudy
12:35 PM 50.0 °F - 33.8 °F 54% 29.86 in 9.0 mi WNW 11.5 mph 16.1 mph N/A   Mostly Cloudy
12:55 PM 51.8 °F - 33.8 °F 50% 29.85 in 10.0 mi NW 15.0 mph 23.0 mph N/A   Mostly Cloudy
1:15 PM 51.8 °F - 33.8 °F 50% 29.85 in 10.0 mi WNW 12.7 mph 20.7 mph N/A   Mostly Cloudy
1:35 PM 53.6 °F - 32.0 °F 44% 29.84 in 9.0 mi NW 13.8 mph 21.9 mph N/A   Scattered Clouds
1:55 PM 53.6 °F - 32.0 °F 44% 29.84 in 10.0 mi West 13.8 mph 19.6 mph N/A   Scattered Clouds
2:15 PM 55.4 °F - 33.8 °F 44% 29.83 in 10.0 mi West 8.1 mph 18.4 mph N/A   Mostly Cloudy
2:35 PM 55.4 °F - 32.0 °F 41% 29.83 in 10.0 mi West 8.1 mph 16.1 mph N/A   Scattered Clouds
2:55 PM 55.4 °F - 32.0 °F 41% 29.82 in 10.0 mi WNW 9.2 mph 19.6 mph N/A   Partly Cloudy
3:15 PM 55.4 °F - 32.0 °F 41% 29.83 in 10.0 mi WNW 6.9 mph 20.7 mph N/A   Clear
3:35 PM 55.4 °F - 32.0 °F 41% 29.83 in 10.0 mi NW 10.4 mph 16.1 mph N/A   Clear
4:15 PM 57.2 °F - 32.0 °F 38% 29.82 in 10.0 mi WNW 11.5 mph - N/A   Unknown
4:35 PM 57.2 °F - 32.0 °F 38% 29.83 in 10.0 mi West 8.1 mph - N/A   Clear
4:55 PM 57.2 °F - 32.0 °F 38% 29.83 in 10.0 mi WNW 6.9 mph - N/A   Clear
5:15 PM 55.4 °F - 32.0 °F 41% 29.84 in 10.0 mi West 6.9 mph - N/A   Clear
5:35 PM 55.4 °F - 32.0 °F 41% 29.84 in 10.0 mi West 9.2 mph - N/A   Clear
5:55 PM 55.4 °F - 32.0 °F 41% 29.84 in 10.0 mi West 5.8 mph - N/A   Clear
6:15 PM 53.6 °F - 32.0 °F 44% 29.85 in 10.0 mi West 4.6 mph - N/A   Clear
6:35 PM 51.8 °F - 32.0 °F 47% 29.85 in 10.0 mi West 3.5 mph - N/A   Clear
6:55 PM 51.8 °F - 32.0 °F 47% 29.86 in 10.0 mi Calm Calm - N/A   Clear
7:15 PM 48.2 °F - 32.0 °F 54% 29.86 in 10.0 mi Calm Calm - N/A   Clear
7:35 PM 46.4 °F - 33.8 °F 62% 29.87 in 10.0 mi Calm Calm - N/A   Clear
7:55 PM 46.4 °F - 32.0 °F 57% 29.87 in 10.0 mi Calm Calm - N/A   Clear
8:15 PM 46.4 °F - 33.8 °F 62% 29.88 in 10.0 mi Calm Calm - N/A   Clear
8:35 PM 44.6 °F - 33.8 °F 66% 29.88 in 10.0 mi Calm Calm - N/A   Clear
8:55 PM 42.8 °F - 33.8 °F 70% 29.89 in 10.0 mi Calm Calm - N/A   Clear
9:15 PM 42.8 °F - 33.8 °F 70% 29.90 in 10.0 mi Calm Calm - N/A   Clear
9:35 PM 42.8 °F - 33.8 °F 70% 29.92 in 10.0 mi Calm Calm - N/A   Clear
9:55 PM 41.0 °F - 33.8 °F 76% 29.92 in 10.0 mi Calm Calm - N/A   Clear
10:15 PM 39.2 °F - 33.8 °F 81% 29.93 in 10.0 mi Calm Calm - N/A   Clear
10:35 PM 39.2 °F - 33.8 °F 81% 29.93 in 10.0 mi Calm Calm - N/A   Clear
10:55 PM 37.4 °F - 33.8 °F 87% 29.93 in 10.0 mi Calm Calm - N/A   Clear
11:15 PM 37.4 °F - 33.8 °F 87% 29.93 in 10.0 mi Calm Calm - N/A   Clear
11:35 PM 35.6 °F - 33.8 °F 93% 29.92 in 10.0 mi Calm Calm - N/A   Clear
11:55 PM 35.6 °F - 33.8 °F 93% 29.92 in 10.0 mi Calm Calm - N/A   Clear